sat.trackr.live / text

‹ back to catalog

KUIPER-00097

NORAD 65136 · 2025-171E

PAYLOAD ACTIVE UNKNOWN

§ Identity

Operator
Country
US
Launch date
2025-08-11
Launch site
AFETR
Launch vehicle
Mass (kg)
RCS (m²)

External: N2YO · Heavens-Above · Gunter

§ Orbital elements

Epoch: 2026-05-24T20:21:40.922784Z

Period
97.30 min
Inclination
51.9001°
Eccentricity
0.0000285
Mean motion
14.79937554 rev/d
Perigee alt
629.3 km
Apogee alt
629.7 km
Semi-major
7,007.7 km
B*
2.7338e-4
RAAN
183.9481°
Arg perigee
66.9104°
Mean anomaly
293.1889°
Rev number
4,412

§ Raw data

KUIPER-000971 65136U 25171E   26144.84839031  .00001864  00000+0  27338-3 0  99942 65136  51.9001 183.9481 0000285  66.9104 293.1889 14.79937554 44129

JSON: /api/v1/satellites/65136 · /tle

For live sub-satellite position, see the globe view (requires WebGL).

§ Visibility from observer

Set your observer location to see the next 7 days of passes ≥ 10°. The values pass through the URL so the page stays shareable.

No JS? Fill the form by hand. The geolocation button needs JavaScript.